Caldwell, NJ

7:09 AM EDT on August 21, 2019 (GMT -0400)
Essex County

Weather History for KCDW - June, 2019

Change the Weather History Date:

Saturday, June 8, 2019

  Actual Average Record
Temperature  
Mean Temperature 72 °F -  
Max Temperature 82 °F 76 °F 97 °F (2011)
Min Temperature 62 °F 54 °F 41 °F (1977)
Cooling Degree Days 7    
Growing Degree Days 22 (Base 50)    
Moisture  
Dew Point 52 °F    
Average Humidity 54    
Maximum Humidity 93    
Minimum Humidity 28    
Precipitation  
Precipitation 0.00 in - - ()
Sea Level Pressure  
Sea Level Pressure 30.15 in    
Wind  
Wind Speed 4 mph (ESE)    
Max Wind Speed 15 mph    
Max Gust Speed 20 mph    
Visibility 10 miles    
Events      
Averages and records for this station are not official NWS values.
T = Trace of Precipitation, MM = Missing Value Source: NWS Daily Summary

Daily Weather History Graph

Daily Weather History Graph

Search for Another Location

Airport or City:

Astronomy

Jun. 08, 2019 Rise Set
Actual Time 5:25 AM EDT 8:27 PM EDT
Civil Twilight 4:52 AM EDT 9:00 PM EDT
Nautical Twilight 4:10 AM EDT 9:42 PM EDT
Astronomical Twilight 3:20 AM EDT 10:32 PM EDT
Moon 10:51 AM EDT (6/8) 12:26 AM EDT (6/8)
Length of Visible Light 16h 08m
Length of Day
15h 01m
Waxing Crescent, 32% of the Moon is Illuminated
Jun 8
Waxing Crescent
Jun 10
First Quarter
Jun 17
Full
Jun 25
Last Quarter
Jul 2
New

Hourly Weather History & Observations

Time (EDT) Temp. Dew Point Humidity Pressure Visibility Wind Dir Wind Speed Gust Speed Precip Events Conditions
12:53 AM 66.0 °F 62.1 °F 87% 30.03 in 10.0 mi Calm Calm - N/A   Clear
1:53 AM 64.9 °F 62.1 °F 90% 30.04 in 8.0 mi Calm Calm - N/A   Clear
2:53 AM 63.0 °F 61.0 °F 93% 30.04 in 9.0 mi Calm Calm - N/A   Clear
3:53 AM 63.0 °F 61.0 °F 93% 30.05 in 10.0 mi Calm Calm - N/A   Clear
4:53 AM 62.1 °F 60.1 °F 93% 30.07 in 10.0 mi North 3.5 mph - N/A   Clear
5:53 AM 62.1 °F 59.0 °F 90% 30.11 in 10.0 mi Calm Calm - N/A   Clear
6:53 AM 64.0 °F 60.1 °F 87% 30.13 in 10.0 mi Calm Calm - N/A   Clear
7:53 AM 70.0 °F 55.9 °F 61% 30.14 in 10.0 mi NE 4.6 mph - N/A   Clear
8:53 AM 75.0 °F 50.0 °F 41% 30.14 in 10.0 mi East 9.2 mph - N/A   Clear
9:53 AM 77.0 °F 50.0 °F 39% 30.16 in 10.0 mi ENE 13.8 mph - N/A   Clear
10:53 AM 79.0 °F 50.0 °F 36% 30.17 in 10.0 mi ESE 13.8 mph - N/A   Clear
11:53 AM 80.1 °F 48.9 °F 34% 30.18 in 10.0 mi ESE 12.7 mph - N/A   Clear
12:53 PM 80.1 °F 48.0 °F 32% 30.17 in 10.0 mi ESE 11.5 mph - N/A   Clear
1:53 PM 80.1 °F 46.9 °F 31% 30.17 in 10.0 mi ESE 15.0 mph 19.6 mph N/A   Clear
2:53 PM 82.0 °F 48.0 °F 30% 30.17 in 10.0 mi ENE 8.1 mph - N/A   Clear
3:53 PM 82.0 °F 46.0 °F 28% 30.17 in 10.0 mi SSE 4.6 mph - N/A   Clear
4:53 PM 82.0 °F 48.0 °F 30% 30.17 in 10.0 mi Variable 4.6 mph - N/A   Clear
5:53 PM 80.1 °F 50.0 °F 35% 30.18 in 10.0 mi South 11.5 mph - N/A   Clear
6:53 PM 77.0 °F 44.1 °F 31% 30.20 in 10.0 mi Variable 4.6 mph - N/A   Clear
7:53 PM 73.9 °F 44.1 °F 34% 30.21 in 10.0 mi Variable 3.5 mph - N/A   Clear
8:53 PM 71.1 °F 44.1 °F 38% 30.23 in 10.0 mi SSW 3.5 mph - N/A   Clear
9:53 PM 68.0 °F 46.0 °F 45% 30.25 in 10.0 mi Calm Calm - N/A   Clear
10:53 PM 66.0 °F 46.0 °F 48% 30.26 in 10.0 mi Calm Calm - N/A   Clear
11:53 PM 62.1 °F 48.0 °F 60% 30.27 in 10.0 mi Calm Calm - N/A   Clear